User: anonymous   Login
Location: Unspecified
(0.0000°N, 0.0000°E)
Time: 19:03:30
(UTC+00:00)
Language:

SAUDISAT 3 - Orbit

View from above orbital plane
View from above orbital plane
View from above satellite
View from above satellite

Ground track
Ground track

The orbit data is extracted from the following two-line orbital elements,

1 31118U 07012B   17084.84049555 +.00000046 +00000-0 +15651-4 0  9996
2 31118 097.7283 082.7887 0015004 170.0419 190.1090 14.69046611532776
Epoch (UTC): 25 March 2017 20:10:18
Eccentricity: 0.0015004
inclination: 97.7283°
perigee height: 653 km
apogee height: 674 km
right ascension of ascending node: 82.7887°
argument of perigee: 170.0419°
revolutions per day: 14.69046611
mean anomaly at epoch: 190.1090°
orbit number at epoch: 53277

The dashed part of the orbit path shows where the satellite is in the earth's shadow,  

DLR